TimeCDT,TemperatureF,Dew PointF,Humidity,Sea Level PressureIn,VisibilityMPH,Wind Direction,Wind SpeedMPH,Gust SpeedMPH,PrecipitationIn,Events,Conditions,WindDirDegrees,DateUTC
12:15 AM,72.7,65.5,78,29.69,10.0,SSE,13.8,-,N/A,,Overcast,160,2013-03-22 05:15:00
12:35 AM,72.9,65.5,78,29.69,10.0,South,10.4,-,N/A,,Overcast,170,2013-03-22 05:35:00
12:55 AM,73.0,65.5,77,29.67,10.0,SSE,11.5,-,N/A,,Overcast,160,2013-03-22 05:55:00
1:15 AM,73.2,65.5,77,29.66,10.0,SSE,13.8,-,N/A,,Overcast,160,2013-03-22 06:15:00
1:35 AM,73.4,65.8,77,29.65,10.0,SSE,13.8,23.0,N/A,,Overcast,160,2013-03-22 06:35:00
1:55 AM,73.4,66.2,78,29.65,10.0,South,12.7,20.7,N/A,,Overcast,170,2013-03-22 06:55:00
2:15 AM,73.6,65.5,76,29.65,10.0,South,13.8,27.6,N/A,,Overcast,170,2013-03-22 07:15:00
2:35 AM,73.8,65.5,75,29.65,10.0,South,13.8,20.7,N/A,,Overcast,170,2013-03-22 07:35:00
2:55 AM,73.8,65.5,75,29.64,10.0,South,16.1,21.9,N/A,,Overcast,170,2013-03-22 07:55:00
3:15 AM,73.6,65.3,75,29.63,10.0,South,15.0,21.9,N/A,,Overcast,170,2013-03-22 08:15:00
3:35 AM,73.4,65.5,76,29.63,10.0,South,13.8,-,N/A,,Overcast,180,2013-03-22 08:35:00
3:55 AM,73.4,65.5,76,29.62,10.0,South,16.1,21.9,N/A,,Overcast,180,2013-03-22 08:55:00
4:15 AM,73.4,65.7,77,29.62,10.0,South,13.8,21.9,N/A,,Overcast,170,2013-03-22 09:15:00
4:35 AM,73.4,65.3,76,29.61,10.0,South,12.7,20.7,N/A,,Overcast,180,2013-03-22 09:35:00
4:55 AM,73.4,65.3,76,29.61,10.0,South,18.4,24.2,N/A,,Overcast,170,2013-03-22 09:55:00
5:15 AM,73.4,65.5,76,29.62,10.0,South,15.0,19.6,N/A,,Overcast,180,2013-03-22 10:15:00
5:35 AM,73.6,65.5,76,29.62,10.0,South,15.0,-,N/A,,Overcast,180,2013-03-22 10:35:00
5:55 AM,73.6,65.7,76,29.62,10.0,South,13.8,21.9,N/A,,Overcast,180,2013-03-22 10:55:00
6:15 AM,73.6,65.5,76,29.62,10.0,South,12.7,-,N/A,,Overcast,180,2013-03-22 11:15:00
6:35 AM,73.6,65.5,76,29.62,10.0,South,13.8,19.6,N/A,,Overcast,180,2013-03-22 11:35:00
6:55 AM,73.6,65.7,76,29.62,10.0,South,11.5,20.7,N/A,,Overcast,170,2013-03-22 11:55:00
7:15 AM,73.6,65.8,77,29.63,10.0,SSE,11.5,16.1,N/A,,Overcast,160,2013-03-22 12:15:00
7:35 AM,73.4,66.2,78,29.63,10.0,SSE,10.4,-,N/A,,Overcast,160,2013-03-22 12:35:00
7:55 AM,73.6,66.2,78,29.64,10.0,SSE,10.4,-,N/A,,Overcast,160,2013-03-22 12:55:00
8:15 AM,73.8,66.4,78,29.65,10.0,SSE,8.1,-,N/A,,Overcast,150,2013-03-22 13:15:00
8:35 AM,73.9,66.6,78,29.65,10.0,SSE,9.2,-,N/A,,Overcast,150,2013-03-22 13:35:00
8:55 AM,74.3,66.7,77,29.67,10.0,SSE,6.9,-,N/A,,Overcast,160,2013-03-22 13:55:00
9:15 AM,74.5,67.1,78,29.68,10.0,South,6.9,-,N/A,,Overcast,170,2013-03-22 14:15:00
9:35 AM,74.5,67.1,78,29.69,10.0,South,8.1,-,N/A,,Overcast,180,2013-03-22 14:35:00
9:55 AM,75.4,67.1,75,29.69,10.0,South,8.1,-,N/A,,Overcast,170,2013-03-22 14:55:00
10:15 AM,75.9,67.1,74,29.70,7.0,South,9.2,-,N/A,,Overcast,170,2013-03-22 15:15:00
10:35 AM,76.1,67.3,74,29.70,7.0,South,8.1,-,N/A,,Overcast,170,2013-03-22 15:35:00
10:55 AM,75.9,67.5,75,29.70,7.0,South,6.9,-,N/A,,Overcast,170,2013-03-22 15:55:00
11:15 AM,77.0,67.1,71,29.70,7.0,South,5.8,-,N/A,,Overcast,180,2013-03-22 16:15:00
11:35 AM,77.2,67.5,72,29.70,7.0,South,5.8,-,N/A,,Overcast,170,2013-03-22 16:35:00
11:55 AM,77.9,67.3,70,29.70,7.0,SSE,5.8,-,N/A,,Overcast,150,2013-03-22 16:55:00
12:15 PM,77.9,67.3,70,29.70,7.0,SE,5.8,-,N/A,,Overcast,140,2013-03-22 17:15:00
12:35 PM,79.3,67.5,67,29.70,7.0,SE,5.8,-,N/A,,Overcast,140,2013-03-22 17:35:00
12:55 PM,80.8,67.3,63,29.69,7.0,SSE,6.9,-,N/A,,Overcast,150,2013-03-22 17:55:00
1:15 PM,82.4,67.1,60,29.68,7.0,SSE,8.1,-,N/A,,Overcast,160,2013-03-22 18:15:00
1:35 PM,83.1,66.2,57,29.67,7.0,South,9.2,-,N/A,,Overcast,170,2013-03-22 18:35:00
1:55 PM,86.2,66.4,51,29.65,7.0,SSE,5.8,-,N/A,,Overcast,160,2013-03-22 18:55:00
2:15 PM,86.2,66.2,51,29.65,5.0,South,9.2,-,N/A,,Haze,170,2013-03-22 19:15:00
2:35 PM,86.4,66.2,51,29.63,7.0,SE,8.1,-,N/A,,Mostly Cloudy,130,2013-03-22 19:35:00
2:55 PM,87.4,65.7,48,29.62,7.0,SSE,6.9,-,N/A,,Mostly Cloudy,150,2013-03-22 19:55:00
3:15 PM,90.3,64.9,43,29.61,7.0,SE,8.1,-,N/A,,Mostly Cloudy,130,2013-03-22 20:15:00
3:35 PM,88.3,65.5,47,29.60,7.0,ESE,5.8,-,N/A,,Overcast,110,2013-03-22 20:35:00
3:55 PM,87.3,64.9,47,29.60,7.0,SSE,5.8,-,N/A,,Scattered Clouds,150,2013-03-22 20:55:00
4:15 PM,88.5,64.6,45,29.59,7.0,SE,6.9,-,N/A,,Clear,140,2013-03-22 21:15:00
4:35 PM,89.4,64.4,43,29.59,7.0,SE,3.5,-,N/A,,Clear,140,2013-03-22 21:35:00
4:55 PM,88.0,66.2,48,29.59,7.0,SE,11.5,23.0,N/A,,Scattered Clouds,130,2013-03-22 21:55:00
5:15 PM,88.5,66.0,47,29.58,5.0,ESE,10.4,17.3,N/A,,Haze,120,2013-03-22 22:15:00
5:35 PM,87.3,66.4,50,29.59,7.0,SSE,9.2,16.1,N/A,,Clear,150,2013-03-22 22:35:00
5:55 PM,87.4,66.4,49,29.59,7.0,SE,9.2,-,N/A,,Scattered Clouds,140,2013-03-22 22:55:00
6:15 PM,85.6,66.7,53,29.59,5.0,SE,10.4,16.1,N/A,,Haze,130,2013-03-22 23:15:00
6:35 PM,84.4,67.1,56,29.60,7.0,SE,8.1,-,N/A,,Clear,130,2013-03-22 23:35:00
6:55 PM,83.3,66.7,57,29.60,7.0,SE,8.1,-,N/A,,Scattered Clouds,130,2013-03-22 23:55:00
7:15 PM,82.4,67.1,60,29.60,7.0,ESE,9.2,-,N/A,,Mostly Cloudy,120,2013-03-23 00:15:00
7:35 PM,80.2,67.1,64,29.61,10.0,ESE,11.5,16.1,N/A,,Scattered Clouds,110,2013-03-23 00:35:00
7:55 PM,79.3,67.1,66,29.61,10.0,ESE,10.4,-,N/A,,Clear,110,2013-03-23 00:55:00
8:15 PM,78.1,67.3,69,29.62,10.0,ESE,10.4,16.1,N/A,,Clear,120,2013-03-23 01:15:00
8:35 PM,77.2,67.8,73,29.63,10.0,ESE,11.5,16.1,N/A,,Clear,110,2013-03-23 01:35:00
8:55 PM,76.3,67.6,74,29.65,10.0,ESE,8.1,16.1,N/A,,Clear,110,2013-03-23 01:55:00
9:15 PM,75.6,67.5,76,29.66,10.0,ESE,9.2,-,N/A,,Clear,120,2013-03-23 02:15:00
9:35 PM,75.2,67.5,77,29.66,10.0,ESE,8.1,-,N/A,,Clear,120,2013-03-23 02:35:00
9:55 PM,74.5,67.5,79,29.67,10.0,ESE,5.8,-,N/A,,Clear,120,2013-03-23 02:55:00
10:15 PM,73.9,67.3,80,29.67,10.0,SE,5.8,-,N/A,,Clear,130,2013-03-23 03:15:00
10:35 PM,73.8,67.6,81,29.67,10.0,SE,9.2,-,N/A,,Scattered Clouds,130,2013-03-23 03:35:00
10:55 PM,74.1,67.8,81,29.67,10.0,ESE,8.1,-,N/A,,Overcast,120,2013-03-23 03:55:00
11:15 PM,74.7,68.0,80,29.68,7.0,SE,8.1,-,N/A,,Overcast,130,2013-03-23 04:15:00
11:35 PM,74.5,68.2,81,29.68,7.0,SE,10.4,-,N/A,,Overcast,130,2013-03-23 04:35:00
11:55 PM,74.3,68.0,81,29.67,7.0,SE,6.9,-,N/A,,Overcast,130,2013-03-23 04:55:00